TimeEST,TemperatureF,Dew PointF,Humidity,Sea Level PressureIn,VisibilityMPH,Wind Direction,Wind SpeedMPH,Gust SpeedMPH,PrecipitationIn,Events,Conditions,WindDirDegrees,DateUTC
12:15 AM,31.6,29.3,91,30.01,3.0,South,9.2,-,N/A,,Overcast,180,2013-01-30 05:15:00
12:35 AM,31.6,29.3,91,30.00,3.0,South,9.2,-,N/A,,Overcast,170,2013-01-30 05:35:00
1:15 AM,32.0,30.0,92,29.97,5.0,South,11.5,17.3,N/A,,Overcast,180,2013-01-30 06:15:00
1:35 AM,32.5,30.4,92,29.97,3.0,South,9.2,18.4,N/A,Rain,Light Rain,180,2013-01-30 06:35:00
1:55 AM,32.7,30.7,92,29.97,3.0,South,8.1,-,N/A,Rain,Rain,170,2013-01-30 06:55:00
2:15 AM,32.9,30.6,91,29.95,5.0,South,11.5,17.3,N/A,Rain,Light Rain,170,2013-01-30 07:15:00
2:35 AM,32.9,30.7,92,29.95,7.0,South,12.7,-,N/A,Rain,Rain,170,2013-01-30 07:35:00
2:55 AM,33.1,30.9,92,29.93,4.0,South,10.4,-,N/A,Rain,Light Rain,170,2013-01-30 07:55:00
3:15 AM,32.9,30.9,92,29.92,10.0,South,9.2,-,N/A,Rain,Light Rain,170,2013-01-30 08:15:00
3:35 AM,33.1,30.9,92,29.91,10.0,South,8.1,-,N/A,,Overcast,170,2013-01-30 08:35:00
3:55 AM,33.3,30.9,91,29.89,7.0,South,6.9,-,N/A,Rain,Light Rain,170,2013-01-30 08:55:00
4:15 AM,33.3,30.9,91,29.89,7.0,South,8.1,-,N/A,Rain,Light Rain,170,2013-01-30 09:15:00
4:35 AM,33.3,31.1,92,29.89,10.0,SSE,9.2,-,N/A,Rain,Light Rain,160,2013-01-30 09:35:00
4:55 AM,33.3,31.1,92,29.88,7.0,SSE,10.4,-,N/A,Rain,Light Rain,160,2013-01-30 09:55:00
5:15 AM,33.3,31.1,92,29.86,7.0,SSE,10.4,-,N/A,Rain,Light Rain,160,2013-01-30 10:15:00
5:35 AM,33.3,31.5,93,29.85,10.0,SSE,6.9,-,N/A,,Overcast,160,2013-01-30 10:35:00
5:55 AM,33.4,31.6,93,29.84,5.0,SSE,10.4,-,N/A,,Overcast,160,2013-01-30 10:55:00
6:15 AM,33.8,32.0,93,29.83,1.5,SSE,9.2,-,N/A,,Overcast,160,2013-01-30 11:15:00
6:35 AM,34.0,32.0,92,29.83,1.0,South,9.2,-,N/A,,Overcast,170,2013-01-30 11:35:00
6:55 AM,34.2,32.0,92,29.82,1.0,South,9.2,-,N/A,,Overcast,170,2013-01-30 11:55:00
7:15 AM,34.7,32.5,92,29.80,0.5,SSE,6.9,-,N/A,Rain,Light Rain,160,2013-01-30 12:15:00
7:35 AM,35.1,32.9,92,29.79,1.0,SSE,12.7,17.3,N/A,,Overcast,150,2013-01-30 12:35:00
7:55 AM,35.6,33.4,92,29.79,0.2,SSE,12.7,18.4,N/A,Fog,Fog,160,2013-01-30 12:55:00
8:15 AM,35.8,33.8,92,29.78,0.2,SSE,8.1,-,N/A,Fog,Fog,150,2013-01-30 13:15:00
8:35 AM,36.0,33.8,92,29.77,0.2,SSE,9.2,-,N/A,Fog,Fog,160,2013-01-30 13:35:00
8:55 AM,36.1,34.0,92,29.76,0.2,SSE,8.1,-,N/A,Fog,Fog,150,2013-01-30 13:55:00
9:15 AM,36.5,34.3,92,29.74,0.2,SSE,10.4,-,N/A,Fog,Fog,150,2013-01-30 14:15:00
9:35 AM,36.9,34.7,92,29.72,0.2,SSE,11.5,17.3,N/A,Fog,Fog,160,2013-01-30 14:35:00
9:55 AM,37.0,34.9,92,29.70,0.2,South,12.7,19.6,N/A,Fog,Fog,170,2013-01-30 14:55:00
10:15 AM,37.6,35.6,93,29.69,0.2,South,12.7,-,N/A,Fog,Fog,170,2013-01-30 15:15:00
10:35 AM,37.9,35.8,92,29.69,0.2,South,11.5,17.3,N/A,Fog,Fog,170,2013-01-30 15:35:00
10:55 AM,38.7,36.5,92,29.68,0.2,SSE,6.9,-,N/A,Fog,Fog,160,2013-01-30 15:55:00
11:15 AM,38.7,36.5,92,29.66,0.2,SSE,8.1,-,N/A,Fog,Fog,160,2013-01-30 16:15:00
11:35 AM,39.4,37.2,92,29.63,0.2,SE,6.9,-,N/A,Fog,Fog,140,2013-01-30 16:35:00
11:55 AM,39.6,37.4,92,29.63,0.2,SSE,9.2,-,N/A,Fog,Fog,160,2013-01-30 16:55:00
12:15 PM,39.9,37.6,91,29.62,0.2,SSE,9.2,-,N/A,Fog,Fog,160,2013-01-30 17:15:00
12:35 PM,40.3,37.9,91,29.59,0.2,SSE,11.5,17.3,N/A,Fog,Fog,160,2013-01-30 17:35:00
12:55 PM,40.5,38.3,92,29.57,0.2,South,8.1,16.1,N/A,Fog,Fog,170,2013-01-30 17:55:00
1:15 PM,41.2,39.0,92,29.54,0.2,South,11.5,-,N/A,Fog,Fog,170,2013-01-30 18:15:00
1:35 PM,41.4,39.0,91,29.53,0.2,South,10.4,-,N/A,Fog,Fog,170,2013-01-30 18:35:00
1:55 PM,41.5,39.2,91,29.53,0.2,SSE,10.4,-,N/A,Fog,Fog,160,2013-01-30 18:55:00
2:15 PM,42.1,39.6,91,29.51,0.2,South,8.1,-,N/A,Fog,Fog,180,2013-01-30 19:15:00
2:35 PM,42.1,39.6,91,29.51,0.2,South,10.4,-,N/A,Fog,Fog,170,2013-01-30 19:35:00
2:55 PM,42.6,40.1,91,29.50,0.2,South,8.1,-,N/A,,Light Drizzle,180,2013-01-30 19:55:00
3:15 PM,42.8,40.1,90,29.49,0.2,SSE,6.9,-,N/A,Fog,Fog,160,2013-01-30 20:15:00
3:35 PM,43.0,40.5,91,29.49,0.2,South,9.2,-,N/A,Rain,Rain,170,2013-01-30 20:35:00
3:55 PM,43.7,41.2,91,29.49,0.5,South,10.4,-,N/A,,Drizzle,180,2013-01-30 20:55:00
4:15 PM,43.7,41.2,91,29.48,0.5,South,11.5,-,N/A,,Drizzle,170,2013-01-30 21:15:00
4:35 PM,43.9,41.4,91,29.46,0.5,South,13.8,19.6,N/A,Rain,Light Rain,170,2013-01-30 21:35:00
4:55 PM,43.9,41.4,91,29.44,0.2,South,10.4,19.6,N/A,Fog,Fog,170,2013-01-30 21:55:00
5:15 PM,44.6,42.1,91,29.45,0.2,South,11.5,-,N/A,Rain,Light Rain,170,2013-01-30 22:15:00
5:35 PM,45.5,42.8,90,29.46,0.8,South,8.1,16.1,N/A,Rain,Light Rain,180,2013-01-30 22:35:00
5:55 PM,45.7,43.2,91,29.47,1.5,Calm,Calm,-,N/A,Rain,Light Rain,0,2013-01-30 22:55:00
6:15 PM,46.0,43.5,91,29.46,2.0,SE,5.8,-,N/A,,Light Drizzle,130,2013-01-30 23:15:00
6:35 PM,45.3,43.0,92,29.46,0.2,SE,4.6,-,N/A,Rain,Rain,140,2013-01-30 23:35:00
6:55 PM,45.5,42.8,90,29.46,0.2,SE,8.1,-,N/A,Rain,Light Rain,140,2013-01-30 23:55:00
7:15 PM,46.6,43.9,90,29.44,0.2,South,12.7,19.6,N/A,,Drizzle,170,2013-01-31 00:15:00
7:35 PM,46.9,44.4,91,29.42,0.2,SSE,10.4,19.6,N/A,Rain,Rain,160,2013-01-31 00:35:00
7:55 PM,47.3,45.0,92,29.46,0.2,Calm,Calm,-,N/A,Rain,Rain,0,2013-01-31 00:55:00
8:15 PM,46.6,44.1,91,29.46,0.2,Calm,Calm,-,N/A,Rain,Light Rain,0,2013-01-31 01:15:00
8:35 PM,47.3,44.8,91,29.43,0.2,SE,6.9,-,N/A,Rain,Light Rain,130,2013-01-31 01:35:00
8:55 PM,47.5,45.0,91,29.42,0.2,SSE,6.9,-,N/A,,Light Drizzle,160,2013-01-31 01:55:00
9:15 PM,48.0,45.5,91,29.42,0.2,SSE,8.1,-,N/A,Rain,Light Rain,150,2013-01-31 02:15:00
9:35 PM,48.2,45.7,91,29.41,0.2,SSE,10.4,17.3,N/A,Rain,Light Rain,160,2013-01-31 02:35:00
9:55 PM,48.7,46.2,91,29.39,0.2,SSE,13.8,19.6,N/A,Rain,Rain,160,2013-01-31 02:55:00
10:15 PM,49.1,46.6,91,29.39,0.2,South,10.4,-,N/A,Rain,Light Rain,180,2013-01-31 03:15:00
10:35 PM,49.1,46.6,91,29.38,0.8,SSE,9.2,16.1,N/A,Rain,Light Rain,160,2013-01-31 03:35:00
10:55 PM,49.1,46.6,91,29.37,1.2,South,8.1,-,N/A,Rain,Rain,170,2013-01-31 03:55:00
11:15 PM,49.1,46.6,91,29.36,2.5,South,10.4,-,N/A,Rain,Rain,170,2013-01-31 04:15:00
11:35 PM,49.3,46.8,91,29.34,5.0,SSE,9.2,-,N/A,Rain,Light Rain,160,2013-01-31 04:35:00
11:55 PM,49.6,47.3,92,29.34,3.0,South,15.0,20.7,N/A,Rain,Rain,170,2013-01-31 04:55:00